sat.trackr.live / text

‹ back to catalog

STARLINK-32132

NORAD 60334 · 2024-136F

PAYLOAD ACTIVE UNKNOWN

§ Identity

Operator
Country
US
Launch date
2024-08-02
Launch site
AFETR
Launch vehicle
Mass (kg)
RCS (m²)

Purposes: comms

External: N2YO · Heavens-Above · Gunter

§ Orbital elements

Epoch: 2026-05-25T02:49:08.724576Z

Period
94.11 min
Inclination
53.1606°
Eccentricity
0.0001167
Mean motion
15.30195167 rev/d
Perigee alt
474.4 km
Apogee alt
476.0 km
Semi-major
6,853.4 km
B*
1.7716e-5
RAAN
80.8338°
Arg perigee
87.9785°
Mean anomaly
272.1349°
Rev number
10,136

§ Raw data

STARLINK-321321 60334U 24136F   26145.11746209  .00000166  00000+0  17716-4 0  99982 60334  53.1606  80.8338 0001167  87.9785 272.1349 15.30195167101365

JSON: /api/v1/satellites/60334 · /tle

For live sub-satellite position, see the globe view (requires WebGL).

§ Visibility from observer

Set your observer location to see the next 7 days of passes ≥ 10°. The values pass through the URL so the page stays shareable.

No JS? Fill the form by hand. The geolocation button needs JavaScript.